Location: Chippewa Lake
(41.0698°N, 81.9010°W)
Time: 19:29:42
(UTC+00:00)

Cosmos 2181 Rocket - Pass Details

Date: 09 May 2021
Orbit: 952 x 1014 km, 82.9° (Epoch: 16 June)

Event Time Altitude Azimuth Distance (km) Brightness Sun altitude
Exits shadow 05:06:35 61° 292° (WNW) 1,085 4.2 -31.4°
Drops below altitude 10° 05:12:26 10° 1° (N) 2,694 7.2 -31.4°
Sets 05:14:58 0° 5° (N) 3,640 8.1 -31.5°
